Regional Weather Roundup
Issued by NWS Jackson, KY

Home | Current Version | Previous Version | Text Only | Print | Product List | Glossary On
Versions: 1 2 3 4 5 6 7 8 9 10 11 12 13 14 15 16 17 18 19 20 21 22 23 24 25 26 27 28 29 30 31 32 33 34 35 36 37 38 39 40 41 42 43 44 45 46 47 48 49 50
181
ASUS43 KJKL 240410
RWRJKL

EAST KENTUCKY HOURLY WEATHER ROUNDUP
NATIONAL WEATHER SERVICE JACKSON KY
1200 AM EDT TUE OCT 24 2017

NOTE: "FAIR" INDICATES FEW OR NO CLOUDS BELOW 12,000 FEET WITH
NO SIGNIFICANT WEATHER AND/OR OBSTRUCTIONS TO VISIBILITY.

* THESE REPORTS ARE NOT UNDER NWS QUALITY CONTROL AND MAY NOT
  REPORT WEATHER SUCH AS PRECIPITATION AND FOG.

KYZ079-080-083-085-087-088-110-112-115-119-120-240500
...EASTERN KENTUCKY...

CITY           SKY/WX    TMP DP  RH WIND       PRES   REMARKS
JACKSON        LGT RAIN  51  49  92 VRB6      29.84R FOG
LONDON         CLOUDY    51  46  83 SW7       29.89R
SOMERSET*      CLEAR     46  45  93 W5        29.91S
MONTICELLO*    CLEAR     48  46  93 W12       29.92S
WILLIAMSBURG*  CLEAR     48  48 100 SW3       29.91S
MIDDLESBORO*   PTCLDY    53  45  75 S3        29.91S
HARLAN APT*    CLOUDY    52  46  82 SW9G22    29.90R
PIKE CO APT*   RAIN      53  53 100 SW7       29.83R
BIG SANDY APT* CLOUDY    55  51  88 SW10G22   29.82S
MOREHEAD APT*  FOG       52  50  93 SW16G24   29.80S VSB 1
$$

KYZ035-036-041-042-044-050-067-078-099-240500
...CENTRAL KENTUCKY...

CITY           SKY/WX    TMP DP  RH WIND       PRES   REMARKS
MT STERLING*   CLOUDY    50  48  93 W14G24    29.83R
FLEMING/MASON* CLOUDY    51  50  97 W14G24    29.78S
DANVILLE*      CLEAR     48  45  87 W10       29.87S
LEXINGTON      CLEAR     49  45  86 SW9       29.83S
FRANKFORT      CLEAR     47  43  86 SW8       29.81F
LOUISVILLE     MOCLDY    51  47  86 S8        29.81F
LEBANON*         N/A     48  45  87 S9        29.85F
GLASGOW*       PTCLDY    49  48  98 S6        29.86F
BOWLING GREEN  CLOUDY    53  49  86 S7        29.85F
$$

KYZ091>093-OHZ055-061-077-WVZ005-015-034-035-042-240500
...SOUTHERN OHIO/WEST VIRGINIA...

CITY           SKY/WX    TMP DP  RH WIND       PRES   REMARKS
COVINGTON      PTCLDY    47  45  93 W8        29.76S
COLUMBUS       RAIN      55  54  96 W15G26    29.66R FOG
DAYTON         LGT RAIN  49  47  93 W15       29.71R
WILMINGTON     LGT RAIN  51  50  96 W15G24    29.72R
HUNTINGTON     CLOUDY    55  50  83 SW10      29.76S
CHARLESTON     MOCLDY    58  52  80 SW13      29.77S
PINEVILLE*     CLOUDY    54  53  97 MISG      29.87S
BECKLEY        CLOUDY    53  49  86 SW6       29.83F
BLUEFIELD      CLEAR     50  46  86 W10       29.84F
LOGAN CO APT*  CLOUDY    55  54  94 SW7G15    29.81R
$$

VAZ002-007-008-TNZ017-027-036-066-071-240500
...SOUTHWEST VIRGINIA/EAST TENNESSEE...

CITY           SKY/WX    TMP DP  RH WIND       PRES   REMARKS
WISE*          CLOUDY    52  52 100 SW17      29.87S
JONESVILLE*    CLOUDY    54  50  87 W7        29.90S
ABINGDON*      CLOUDY    55  54  94 W8        29.87F
BRISTOL        MOCLDY    55  53  93 SW12      29.88F
MORRISTOWN*    MOCLDY    54  50  87 W10       29.90S
SEVIERVILLE*   MOCLDY    55  50  82 SW10G17   29.92S
KNOXVILLE      PTCLDY    54  50  86 SW10      29.93S
LAFOLLETTE*    CLEAR     52  43  71 SW5       29.94F
OAK RIDGE      CLEAR     52  48  86 VRB3      29.94S
CROSSVILLE     CLEAR     47  45  93 VRB7      29.96R
NASHVILLE      CLEAR     50  46  86 S7        29.89F
$$

...KEY TO REMARKS...
VSB - VISIBILITY IN MILES
WCI - WIND CHILL INDEX
HX  - HEAT INDEX

$$




USA.gov is the U.S. government's official web portal to all federal, state and local government web resources and services.